Overview Statistics Trail Chart Weather Telemetry Raw packets
 

This is the latest recevied weather packets stored in our database for station/object EPGD. If no packets are shown the sender has not sent any weather packets the latest 10 day(s).

<< 16 17 18 19 20 >>
Time Temp. Humidity Pressure Rain* Wind** Luminosity Snow
1787792704 10° C 100% 1025 hPa - - - -
1787790904 10.56° C 93% 1025 hPa - - - -
1787789104 10.56° C 100% 1025 hPa - - - -
1787787304 10.56° C 100% 1025 hPa - - - -
1787785504 11.67° C 93% 1025 hPa - - - -
1787783704 13.89° C 87% 1025 hPa - - - -
1787781904 15° C 82% 1025 hPa - - - -
1787780104 15° C 82% 1025 hPa - - - -
1787778304 15° C 82% 1025 hPa - - - -
1787772904 15° C 82% 1025 hPa - - - -
1787771104 15° C 82% 1025 hPa - - - -
1787769303 15° C 82% 1025 hPa - - - -
1787767504 15° C 76% 1025 hPa - - - -
1787765703 15° C 76% 1025 hPa - - - -
1787763904 15.56° C 72% 1025 hPa - - - -
1787762104 15.56° C 72% 1025 hPa - - - -
1787760304 16.67° C 67% 1025 hPa - - - -
1787758504 16.67° C 72% 1025 hPa - - - -
1787756704 16.67° C 67% 1025 hPa - - - -
1787754904 17.78° C 63% 1025 hPa - - - -
1787753104 16.67° C 67% 1025 hPa - - - -
1787751304 17.78° C 67% 1025 hPa - - - -
1787749504 16.67° C 72% 1025 hPa - - - -
1787747703 16.67° C 67% 1025 hPa - - - -
1787745904 17.78° C 67% 1025 hPa - - - -

* Rain since midnight (hover to see other rain measurements)
** Current wind speed in m/s (hover to see current wind gust speed)